Weather History for KGTB - December, 2012

Change the Weather History Date:

Monday, December 3, 2012

  Actual Average Record
Temperature  
Mean Temperature 42 °F -  
Max Temperature 46 °F 36 °F 55 °F (2001)
Min Temperature 37 °F 21 °F -9 °F (2002)
Degree Days  
Heating Degree Days 24    
Moisture  
Dew Point 40 °F    
Average Humidity 97    
Maximum Humidity 100    
Minimum Humidity 87    
Precipitation  
Precipitation 0.00 in - - ()
Sea Level Pressure  
Sea Level Pressure 30.17 in    
Wind  
Wind Speed 7 mph (NNE)    
Max Wind Speed 16 mph    
Max Gust Speed 20 mph    
Visibility 10 miles    
Events      
Averages and records for this station are not official NWS values.
T = Trace of Precipitation, MM = Missing Value Source: NWS Daily Summary

Daily Weather History Graph

Daily Weather History Graph

Search for Another Location

Airport or City:

Trip Planner

Search our weather history database for the weather conditions in past years. The results will help you decide how hot, cold, wet, or windy it might be!

Date:

Astronomy

Dec. 03, 2012 Rise Set
Actual Time 7:20 AM EST 4:25 PM EST
Civil Twilight 6:47 AM EST 4:57 PM EST
Nautical Twilight 6:11 AM EST 5:33 PM EST
Astronomical Twilight 5:36 AM EST 6:08 PM EST
Moon 9:15 PM EST 10:37 AM EST
Length of Visible Light 10h 09m
Length of Day
9h 04m
Waning Gibbous, 78% of the Moon is Illuminated
Dec 3
Waning Gibbous
Dec 6
Last Quarter
Dec 13
New
Dec 20
First Quarter
Dec 28
Full

Hourly Weather History & Observations

Time (EST) Temp. Windchill Dew Point Humidity Pressure Visibility Wind Dir Wind Speed Gust Speed Precip Events Conditions
12:13 AM 46.4 °F 41.1 °F 46.4 °F 100% 30.02 in 10.0 mi West 11.5 mph 19.6 mph N/A   Overcast
12:18 AM 46.4 °F 41.1 °F 46.4 °F 100% 30.02 in 10.0 mi West 11.5 mph 19.6 mph N/A   Overcast
12:19 AM 46.4 °F 41.1 °F 46.4 °F 100% 30.02 in 10.0 mi West 11.5 mph 19.6 mph N/A   Overcast
12:30 AM 44.6 °F 38.8 °F 44.6 °F 100% 30.03 in 10.0 mi West 11.5 mph 19.6 mph N/A   Overcast
12:40 AM 44.6 °F 40.2 °F 44.6 °F 100% 30.03 in 10.0 mi West 8.1 mph - N/A   Overcast
12:41 AM 44.6 °F 40.7 °F 44.6 °F 100% 30.03 in 10.0 mi West 6.9 mph - N/A   Mostly Cloudy
12:49 AM 44.6 °F 41.4 °F 44.6 °F 100% 30.03 in 10.0 mi West 5.8 mph - N/A   Mostly Cloudy
12:55 AM 44.1 °F 39.5 °F 44.1 °F 100% 30.04 in 10.0 mi West 8.1 mph - N/A   Mostly Cloudy
1:10 AM 42.8 °F 38.0 °F 42.8 °F 100% 30.04 in 10.0 mi West 8.1 mph - N/A   Mostly Cloudy
1:40 AM 44.6 °F 39.7 °F 44.6 °F 100% 30.07 in 10.0 mi WSW 9.2 mph - N/A   Overcast
1:55 AM 43.5 °F 38.9 °F 43.5 °F 100% 30.08 in 10.0 mi WSW 8.1 mph - N/A   Overcast
1:58 AM 42.8 °F 37.5 °F 42.8 °F 100% 30.08 in 10.0 mi West 9.2 mph - N/A   Overcast
2:11 AM 42.8 °F 38.0 °F 42.8 °F 100% 30.09 in 10.0 mi West 8.1 mph - N/A   Overcast
2:55 AM 43.2 °F 39.0 °F 43.2 °F 100% 30.12 in 10.0 mi West 6.9 mph - N/A   Overcast
3:01 AM 42.8 °F 38.6 °F 42.8 °F 100% 30.12 in 10.0 mi West 6.9 mph - N/A   Overcast
3:04 AM 42.8 °F 38.0 °F 42.8 °F 100% 30.12 in 10.0 mi West 8.1 mph - N/A   Overcast
3:06 AM 42.8 °F 38.6 °F 42.8 °F 100% 30.12 in 10.0 mi West 6.9 mph - N/A   Overcast
3:14 AM 42.8 °F 38.6 °F 42.8 °F 100% 30.12 in 10.0 mi West 6.9 mph - N/A   Overcast
3:21 AM 42.8 °F 39.3 °F 42.8 °F 100% 30.12 in 10.0 mi West 5.8 mph - N/A   Overcast
3:33 AM 42.8 °F 38.6 °F 42.8 °F 100% 30.12 in 10.0 mi West 6.9 mph - N/A   Overcast
3:53 AM 42.8 °F 40.1 °F 42.8 °F 100% 30.12 in 10.0 mi West 4.6 mph - N/A   Overcast
3:55 AM 43.0 °F 40.3 °F 43.0 °F 100% 30.12 in 10.0 mi West 4.6 mph - N/A   Overcast
4:12 AM 42.8 °F 39.3 °F 42.8 °F 100% 30.12 in 10.0 mi West 5.8 mph - N/A   Overcast
4:55 AM 42.8 °F - 42.8 °F 100% 30.14 in 10.0 mi Calm Calm - N/A   Overcast
4:59 AM 42.8 °F 40.1 °F 42.8 °F 100% 30.14 in 10.0 mi NW 4.6 mph - N/A   Overcast
5:19 AM 41.0 °F 37.1 °F 41.0 °F 100% 30.16 in 10.0 mi North 5.8 mph - N/A   Overcast
5:33 AM 41.0 °F 37.1 °F 41.0 °F 100% 30.17 in 10.0 mi NNE 5.8 mph - N/A   Overcast
5:34 AM 41.0 °F 36.4 °F 41.0 °F 100% 30.17 in 10.0 mi NNE 6.9 mph - N/A   Overcast
5:55 AM 39.7 °F 35.6 °F 39.6 °F 99% 30.17 in 10.0 mi NNE 5.8 mph - N/A   Overcast
5:57 AM 39.2 °F 34.2 °F 39.2 °F 100% 30.17 in 10.0 mi NNE 6.9 mph - N/A   Overcast
6:10 AM 39.2 °F 35.0 °F 39.2 °F 100% 30.18 in 10.0 mi NNE 5.8 mph - N/A   Overcast
6:55 AM 38.8 °F 36.5 °F 38.1 °F 97% 30.21 in 10.0 mi North 3.5 mph - N/A   Overcast
7:16 AM 39.2 °F 37.0 °F 39.2 °F 100% 30.21 in 10.0 mi NNE 3.5 mph - N/A   Overcast
7:18 AM 39.2 °F 37.0 °F 39.2 °F 100% 30.21 in 10.0 mi NNE 3.5 mph - N/A   Overcast
7:30 AM 39.2 °F 34.2 °F 39.2 °F 100% 30.22 in 10.0 mi NE 6.9 mph - N/A   Overcast
7:40 AM 39.2 °F 35.0 °F 37.4 °F 93% 30.22 in 10.0 mi NE 5.8 mph - N/A   Overcast
7:55 AM 37.9 °F 34.4 °F 37.8 °F 99% 30.23 in 10.0 mi North 4.6 mph - N/A   Overcast
7:56 AM 37.4 °F 32.8 °F 37.4 °F 100% 30.23 in 10.0 mi North 5.8 mph - N/A   Overcast
8:17 AM 37.4 °F 34.9 °F 37.4 °F 100% 30.24 in 10.0 mi North 3.5 mph - N/A   Overcast
8:34 AM 37.4 °F 34.9 °F 37.4 °F 100% 30.25 in 10.0 mi NNE 3.5 mph - N/A   Overcast
8:43 AM 37.4 °F 33.8 °F 37.4 °F 100% 30.24 in 10.0 mi NE 4.6 mph - N/A   Overcast
8:55 AM 37.9 °F 34.4 °F 37.4 °F 98% 30.24 in 10.0 mi NNE 4.6 mph - N/A   Overcast
9:05 AM 37.4 °F 32.8 °F 37.4 °F 100% 30.24 in 10.0 mi NE 5.8 mph - N/A   Overcast
9:53 AM 37.4 °F 33.8 °F 37.4 °F 100% 30.25 in 10.0 mi ENE 4.6 mph - N/A   Overcast
9:55 AM 37.9 °F 35.5 °F 37.4 °F 98% 30.25 in 10.0 mi ENE 3.5 mph - N/A   Overcast
10:34 AM 39.2 °F 37.0 °F 37.4 °F 93% 30.26 in 10.0 mi ENE 3.5 mph - N/A   Overcast
10:55 AM 38.5 °F 36.1 °F 36.9 °F 94% 30.25 in 10.0 mi East 3.5 mph - N/A   Overcast
11:55 AM 39.2 °F 37.0 °F 37.4 °F 93% 30.24 in 10.0 mi ENE 3.5 mph - N/A   Overcast
12:36 PM 39.2 °F 35.9 °F 37.4 °F 93% 30.23 in 10.0 mi East 4.6 mph - N/A   Overcast
12:55 PM 40.8 °F 38.8 °F 38.5 °F 91% 30.23 in 10.0 mi Variable 3.5 mph - N/A   Overcast
1:03 PM 41.0 °F 38.0 °F 37.4 °F 87% 30.23 in 10.0 mi SE 4.6 mph - N/A   Overcast
1:29 PM 41.0 °F 38.0 °F 37.4 °F 87% 30.22 in 10.0 mi SE 4.6 mph - N/A   Overcast
1:40 PM 41.0 °F - 37.4 °F 87% 30.23 in 10.0 mi Calm Calm - N/A   Overcast
1:55 PM 41.2 °F - 38.5 °F 90% 30.22 in 10.0 mi Calm Calm - N/A   Overcast
1:57 PM 41.0 °F - 39.2 °F 93% 30.22 in 10.0 mi Calm Calm - N/A   Overcast
2:03 PM 41.0 °F 39.0 °F 39.2 °F 93% 30.22 in 10.0 mi SE 3.5 mph - N/A   Overcast
2:14 PM 41.0 °F - 39.2 °F 93% 30.22 in 10.0 mi Calm Calm - N/A   Overcast
2:55 PM 41.7 °F 39.8 °F 39.0 °F 90% 30.22 in 10.0 mi East 3.5 mph - N/A   Overcast
3:24 PM 41.0 °F 38.0 °F 39.2 °F 93% 30.23 in 10.0 mi SE 4.6 mph - N/A   Overcast
3:28 PM 41.0 °F 37.1 °F 39.2 °F 93% 30.23 in 10.0 mi SE 5.8 mph - N/A   Overcast
3:37 PM 41.0 °F 37.1 °F 39.2 °F 93% 30.23 in 10.0 mi SE 5.8 mph - N/A   Overcast
3:55 PM 41.7 °F 37.3 °F 40.1 °F 94% 30.22 in 10.0 mi ESE 6.9 mph - N/A   Overcast
4:08 PM 41.0 °F 36.4 °F 41.0 °F 100% 30.22 in 10.0 mi ESE 6.9 mph - N/A   Overcast
4:55 PM 41.5 °F 37.8 °F 40.6 °F 97% 30.22 in 10.0 mi SSE 5.8 mph - N/A   Overcast
5:55 PM 41.9 °F 38.2 °F 40.3 °F 94% 30.23 in 10.0 mi South 5.8 mph - N/A   Overcast
5:57 PM 42.8 °F 39.3 °F 41.0 °F 93% 30.23 in 10.0 mi SSE 5.8 mph - N/A   Overcast
6:27 PM 42.8 °F 38.6 °F 39.2 °F 87% 30.22 in 10.0 mi SSE 6.9 mph - N/A   Overcast
6:55 PM 42.1 °F 37.1 °F 38.7 °F 88% 30.22 in 10.0 mi South 8.1 mph - N/A   Overcast
7:41 PM 41.0 °F 39.0 °F 37.4 °F 87% 30.21 in 10.0 mi SE 3.5 mph - N/A   Scattered Clouds
7:55 PM 39.0 °F 34.0 °F 37.2 °F 93% 30.21 in 10.0 mi SSE 6.9 mph - N/A   Partly Cloudy
8:55 PM 38.3 °F 33.2 °F 38.1 °F 99% 30.20 in 10.0 mi SE 6.9 mph - N/A   Clear
9:55 PM 39.0 °F 32.3 °F 38.7 °F 99% 30.18 in 10.0 mi SSE 10.4 mph - N/A   Clear
10:55 PM 39.4 °F 32.3 °F 39.0 °F 99% 30.16 in 10.0 mi SE 11.5 mph - N/A   Scattered Clouds
11:55 PM 39.6 °F 31.0 °F 39.4 °F 99% 30.13 in 10.0 mi SE 16.1 mph - N/A   Clear